Satellite-Ground Cal/Val Region Overpasses Predictions

Prediction of Satellite NPP Overpassing Cal/Val Region: PacNW

Region Location: (Latitude: 10.00, Longitude: 139.50) to (Latitude: 22.70, Longitude: 165.60).

Table of predicted overpasses for the next 14.0 days since TLE Epoch: 8/6/2015
Interval Starting Time Starting Location Ending Time Ending Location
1 08/07/2015 02:43:17 ( 10.02, 159.86) 08/07/2015 02:46:52 ( 22.65, 156.87)
2 08/07/2015 15:15:10 ( 22.68, 157.08) 08/07/2015 15:18:46 ( 10.00, 154.07)
3 08/08/2015 02:24:15 ( 10.04, 164.62) 08/08/2015 02:27:50 ( 22.67, 161.62)
4 08/08/2015 14:56:07 ( 22.66, 161.83) 08/08/2015 14:59:42 ( 10.04, 158.84)
5 08/09/2015 03:46:41 ( 10.01, 144.01) 08/09/2015 03:50:17 ( 22.70, 141.00)
6 08/09/2015 14:38:14 ( 18.60, 165.59) 08/09/2015 14:40:40 ( 10.02, 163.59)
7 08/09/2015 16:18:34 ( 22.69, 141.22) 08/09/2015 16:20:35 ( 15.59, 139.51)
8 08/10/2015 03:27:39 ( 10.03, 148.76) 08/10/2015 03:31:14 ( 22.66, 145.77)
9 08/10/2015 15:59:31 ( 22.67, 145.98) 08/10/2015 16:03:06 ( 10.05, 142.98)
10 08/11/2015 03:08:36 ( 10.05, 153.52) 08/11/2015 03:12:11 ( 22.68, 150.52)
11 08/11/2015 15:40:29 ( 22.65, 150.73) 08/11/2015 15:44:04 ( 10.03, 147.74)
12 08/12/2015 02:49:33 ( 10.02, 158.28) 08/12/2015 02:53:09 ( 22.70, 155.27)
13 08/12/2015 15:21:25 ( 22.69, 155.50) 08/12/2015 15:25:01 ( 10.01, 152.49)
14 08/13/2015 02:30:30 ( 10.04, 163.04) 08/13/2015 02:34:05 ( 22.66, 160.04)
15 08/13/2015 15:02:23 ( 22.67, 160.25) 08/13/2015 15:05:58 ( 10.05, 157.26)
16 08/14/2015 02:14:08 ( 19.46, 165.59) 08/14/2015 02:15:03 ( 22.68, 164.79)
17 08/14/2015 03:52:57 ( 10.01, 142.43) 08/14/2015 03:56:27 ( 22.34, 139.50)
18 08/14/2015 14:43:21 ( 22.65, 165.01) 08/14/2015 14:46:56 ( 10.03, 162.01)
19 08/14/2015 16:24:49 ( 22.69, 139.64) 08/14/2015 16:24:58 ( 22.17, 139.51)
20 08/15/2015 03:33:54 ( 10.03, 147.18) 08/15/2015 03:37:29 ( 22.66, 144.18)
21 08/15/2015 16:05:47 ( 22.67, 144.40) 08/15/2015 16:09:22 ( 10.05, 141.40)
22 08/16/2015 03:14:52 ( 10.06, 151.93) 08/16/2015 03:18:27 ( 22.68, 148.94)
23
